Overview Statistics Trail Chart Weather Telemetry Raw packets
 

This is the latest recevied weather packets stored in our database for station/object KK7ZBX. If no packets are shown the sender has not sent any weather packets the latest 10 day(s).

<< 1 2 3 4 5 >>
Time Temp. Humidity Pressure Rain* Wind** Luminosity Snow
1788294631 22.22° C 62% 1010.3 hPa - - - -
1788292825 20.56° C 64% 1010.4 hPa - - - -
1788291025 20° C 65% 1010.4 hPa - - - -
1788289226 19.44° C 68% 1010.5 hPa - - - -
1788285661 17.78° C 76% 1010.5 hPa - - - -
1788285621 17.78° C 76% 1010.5 hPa - - - -
1788283834 16.67° C 78% 1010.4 hPa - - - -
1788280224 16.11° C 79% 1010.5 hPa - - - -
1788274815 15° C 82% 1010.7 hPa - - - -
1788269427 14.44° C 81% 1010 hPa - - - -
1788267630 14.44° C 81% 1009.8 hPa - - - -
1788264027 13.89° C 80% 1009.4 hPa - - - -
1788262220 13.89° C 79% 1009.3 hPa - - - -
1788260422 13.89° C 79% 1009.5 hPa - - - -
1788258639 13.89° C 78% 1009.4 hPa - - - -
1788256833 13.89° C 77% 1009.2 hPa - - - -
1788255029 14.44° C 76% 1009.1 hPa - - - -
1788253228 14.44° C 75% 1009.1 hPa - - - -
1788251424 15° C 74% 1009 hPa - - - -
1788249630 15° C 72% 1008.8 hPa - - - -
1788246110 16.11° C 69% 1008.8 hPa - - - -
1788246021 16.11° C 69% 1008.8 hPa - - - -
1788244230 16.67° C 68% 1008.9 hPa - - - -
1788242454 16.67° C 69% 1009 hPa - - - -
1788242420 16.67° C 69% 1009 hPa - - - -

* Rain since midnight (hover to see other rain measurements)
** Current wind speed in m/s (hover to see current wind gust speed)